Погода в Ляшковке

Украина / Днепропетровская область     49°00′16″N   34°23′29″E
темп.,
°C
ветер,
м/с
пор.,
м/с
влажн.,
%
обл.,
%
осадки,
мм/ч
давл.,
гПа
погр.,
м
6 мая, чт
чт600:00+11ю61364100 0.0 1013366
03:00+9ю41065100 0.0 1013261
06:00+8ююв4106899 0.0 1012253
09:00+13ю61051100 0.0 1012675
12:00+18ююз784697 0.0 10111413
15:00+17юз5750100 0.0 1011950
18:00+13ююз2469100 0.1 1011146
21:00+10с4889100 1.0 1014415
7 мая, пт
пт700:00+9ссз259175 0.1 1014359
03:00+7сз23955 0.1 101542
06:00+7ссз119243 0.0 101610
09:00+12ююз0069100 0.0 1017422
12:00+16ю234297 0.0 10161405
15:00+18ю453989 0.0 10151662
18:00+17ююв5747100 0.0 10131204
21:00+13ююв4959100 0.0 1012158
8 мая, сб
сб800:00+14ю71562100 0.0 1011627
03:00+13ю61478100 0.2 1010647
06:00+13ю61382100 0.1 1009626
09:00+13ююз71287100 0.9 1009781
12:00+11сз91392100 2.4 1011783
15:00+11сз5986100 4.4 1012720
18:00+11сз6965100 0.1 1014842
21:00+8ссз4972100 0.1 1016425
9 мая, вс
вс900:00+7сз497598 0.0 1017324
03:00+5ссз41379100 0.0 1018394
06:00+4сз4117936 0.0 1020322
09:00+10ссз69638 0.0 10221033
12:00+13сз8104988 0.1 10222277
15:00+15ссз8104099 0.1 10222677
18:00+14с685183 0.0 10242221
21:00+8сз49664 0.0 1026161
10 мая, пн
пн1000:00+6ссз48724 0.0 1027138
03:00+5ссз48762 0.0 1028148
06:00+5с36790 0.0 1029137
09:00+11ссв69540 0.0 10281219
12:00+15с79435 0.0 10271707
15:00+16с810427 0.0 10261917
18:00+15ссв7105398 0.0 10241525
21:00+13ссв61256100 0.0 1024889